Weather History for Boundary Cnty AP, Bonners Fer, ID

Change the Weather History Date:

Sunday, April 6, 2014

  Actual Average (KSZT) Record (KSZT)
Temperature  
Mean Temperature 47 °F -  
Max Temperature 57 °F 54 °F 71 °F (1930)
Min Temperature 37 °F 32 °F 21 °F (1912)
Degree Days  
Heating Degree Days 18    
Moisture  
Dew Point 33 °F    
Average Humidity 62    
Maximum Humidity 93    
Minimum Humidity 27    
Precipitation  
Precipitation 0.00 in - - ()
Sea Level Pressure  
Sea Level Pressure 30.01 in    
Wind  
Wind Speed 4 mph (West)    
Max Wind Speed 12 mph    
Max Gust Speed 26 mph    
Visibility 10 miles    
Events Rain    
Averages and records for this station are not official NWS values.
T = Trace of Precipitation, MM = Missing Value Source: NWS Daily Summary

Daily Weather History Graph

Daily Weather History Graph

Search for Another Location

Airport:

Trip Planner

Search our weather history database for the weather conditions in past years. The results will help you decide how hot, cold, wet, or windy it might be!

Date:

Astronomy

Apr. 06, 2014 Rise Set
Actual Time 6:12 AM PDT 7:23 PM PDT
Civil Twilight 5:40 AM PDT 7:55 PM PDT
Nautical Twilight 5:01 AM PDT 8:35 PM PDT
Astronomical Twilight 4:19 AM PDT 9:16 PM PDT
Moon 11:01 AM PDT (4/6) 1:38 AM PDT (4/6)
Length of Visible Light 14h 15m
Length of Day
13h 11m
Waxing Crescent, 45% of the Moon is Illuminated
Apr 6
Waxing Crescent
Apr 7
First Quarter
Apr 15
Full
Apr 22
Last Quarter
Apr 28
New

Hourly Weather History & Observations

Time (PDT) Temp. Windchill Dew Point Humidity Pressure Visibility Wind Dir Wind Speed Gust Speed Precip Events Conditions
12:15 AM 42.8 °F - 37.4 °F 81% 29.90 in 10.0 mi Calm Calm - N/A   Mostly Cloudy
12:35 AM 41.0 °F - 37.4 °F 87% 29.91 in 10.0 mi Calm Calm - N/A   Mostly Cloudy
12:55 AM 41.0 °F 37.1 °F 37.4 °F 87% 29.91 in 10.0 mi WSW 5.8 mph - N/A   Overcast
1:15 AM 41.0 °F - 37.4 °F 87% 29.90 in 10.0 mi Calm Calm - N/A   Overcast
1:35 AM 41.0 °F - 37.4 °F 87% 29.90 in 10.0 mi Calm Calm - N/A   Overcast
1:55 AM 41.0 °F - 37.4 °F 87% 29.90 in 10.0 mi Calm Calm - N/A   Overcast
2:15 AM 41.0 °F - 37.4 °F 87% 29.89 in 10.0 mi Calm Calm - N/A   Overcast
2:35 AM 41.0 °F - 39.2 °F 93% 29.89 in 10.0 mi Calm Calm - N/A   Mostly Cloudy
2:55 AM 41.0 °F - 37.4 °F 87% 29.89 in 10.0 mi Calm Calm - N/A   Overcast
3:15 AM 41.0 °F - 37.4 °F 87% 29.88 in 10.0 mi Calm Calm - N/A   Mostly Cloudy
3:35 AM 41.0 °F 38.0 °F 37.4 °F 87% 29.88 in 10.0 mi SSW 4.6 mph - N/A   Mostly Cloudy
3:55 AM 41.0 °F 35.8 °F 39.2 °F 93% 29.89 in 10.0 mi SSW 8.1 mph - N/A   Mostly Cloudy
4:15 AM 41.0 °F 36.4 °F 39.2 °F 93% 29.90 in 10.0 mi SW 6.9 mph - N/A   Overcast
4:35 AM 41.0 °F 36.4 °F 39.2 °F 93% 29.90 in 10.0 mi SW 6.9 mph - N/A   Mostly Cloudy
4:55 AM 41.0 °F 38.0 °F 39.2 °F 93% 29.90 in 10.0 mi WSW 4.6 mph - N/A   Mostly Cloudy
5:15 AM 41.0 °F 37.1 °F 39.2 °F 93% 29.90 in 10.0 mi SW 5.8 mph - N/A   Mostly Cloudy
5:35 AM 41.0 °F 37.1 °F 39.2 °F 93% 29.90 in 10.0 mi SSW 5.8 mph - N/A   Mostly Cloudy
5:55 AM 41.0 °F 36.4 °F 39.2 °F 93% 29.91 in 10.0 mi SW 6.9 mph - N/A Rain Light Rain
6:15 AM 41.0 °F 36.4 °F 39.2 °F 93% 29.92 in 10.0 mi WSW 6.9 mph - N/A   Mostly Cloudy
6:35 AM 41.0 °F 38.0 °F 39.2 °F 93% 29.92 in 10.0 mi SW 4.6 mph - N/A   Mostly Cloudy
6:55 AM 41.0 °F - 39.2 °F 93% 29.92 in 10.0 mi Calm Calm - N/A   Mostly Cloudy
7:15 AM 41.0 °F 38.0 °F 39.2 °F 93% 29.93 in 10.0 mi SW 4.6 mph - N/A   Mostly Cloudy
7:35 AM 41.0 °F 37.1 °F 39.2 °F 93% 29.95 in 10.0 mi SSW 5.8 mph - N/A   Overcast
7:55 AM 42.8 °F 37.5 °F 39.2 °F 87% 29.95 in 10.0 mi SSW 9.2 mph - N/A   Overcast
8:15 AM 44.6 °F 38.8 °F 39.2 °F 81% 29.96 in 10.0 mi South 11.5 mph - N/A   Mostly Cloudy
8:55 AM 46.4 °F 41.9 °F 39.2 °F 76% 29.96 in 10.0 mi SSW 9.2 mph - N/A   Overcast
9:15 AM 46.4 °F 41.9 °F 39.2 °F 76% 29.96 in 10.0 mi SW 9.2 mph - N/A   Overcast
9:35 AM 46.4 °F 41.5 °F 39.2 °F 76% 29.98 in 10.0 mi SW 10.4 mph - N/A   Overcast
9:55 AM 48.2 °F - 39.2 °F 71% 29.99 in 10.0 mi WSW 9.2 mph - N/A   Overcast
10:15 AM 48.2 °F - 39.2 °F 71% 29.99 in 10.0 mi SW 8.1 mph 20.7 mph N/A   Mostly Cloudy
10:35 AM 50.0 °F - 37.4 °F 62% 30.00 in 10.0 mi SW 6.9 mph - N/A   Mostly Cloudy
10:55 AM 51.8 °F - 35.6 °F 54% 30.01 in 10.0 mi SW 9.2 mph 17.3 mph N/A   Mostly Cloudy
11:15 AM 51.8 °F - 35.6 °F 54% 30.01 in 10.0 mi SW 6.9 mph - N/A   Mostly Cloudy
11:35 AM 53.6 °F - 33.8 °F 47% 30.02 in 10.0 mi SSW 10.4 mph 19.6 mph N/A   Mostly Cloudy
11:55 AM 53.6 °F - 32.0 °F 44% 30.01 in 10.0 mi South 8.1 mph 19.6 mph N/A   Mostly Cloudy
12:15 PM 53.6 °F - 32.0 °F 44% 30.02 in 10.0 mi WSW 9.2 mph 26.5 mph N/A   Mostly Cloudy
12:35 PM 53.6 °F - 35.6 °F 51% 30.02 in 10.0 mi NNW 11.5 mph - N/A   Mostly Cloudy
12:55 PM 51.8 °F - 35.6 °F 54% 30.03 in 10.0 mi North 4.6 mph - N/A   Scattered Clouds
1:15 PM 53.6 °F - 33.8 °F 47% 30.04 in 10.0 mi North 4.6 mph - N/A   Mostly Cloudy
1:35 PM 53.6 °F - 33.8 °F 47% 30.04 in 10.0 mi NNW 4.6 mph - N/A   Mostly Cloudy
1:55 PM 55.4 °F - 32.0 °F 41% 30.04 in 10.0 mi North 10.4 mph - N/A   Mostly Cloudy
2:15 PM 55.4 °F - 32.0 °F 41% 30.05 in 10.0 mi WNW 3.5 mph - N/A   Mostly Cloudy
2:35 PM 55.4 °F - 30.2 °F 38% 30.04 in 10.0 mi North 5.8 mph - N/A   Overcast
2:55 PM 55.4 °F - 28.4 °F 36% 30.05 in 10.0 mi WNW 6.9 mph - N/A   Mostly Cloudy
3:15 PM 55.4 °F - 28.4 °F 36% 30.05 in 10.0 mi WNW 6.9 mph 17.3 mph N/A   Mostly Cloudy
3:35 PM 57.2 °F - 28.4 °F 33% 30.06 in 10.0 mi North 8.1 mph - N/A   Mostly Cloudy
3:55 PM 55.4 °F - 23.0 °F 29% 30.06 in 10.0 mi WNW 8.1 mph - N/A   Mostly Cloudy
4:15 PM 57.2 °F - 24.8 °F 29% 30.06 in 10.0 mi North 8.1 mph - N/A   Scattered Clouds
4:55 PM 57.2 °F - 26.6 °F 31% 30.07 in 10.0 mi NNW 5.8 mph - N/A   Mostly Cloudy
5:15 PM 57.2 °F - 24.8 °F 29% 30.08 in 10.0 mi NW 6.9 mph - N/A   Mostly Cloudy
5:35 PM 57.2 °F - 23.0 °F 27% 30.08 in 10.0 mi West 11.5 mph - N/A   Mostly Cloudy
5:55 PM 55.4 °F - 24.8 °F 31% 30.08 in 10.0 mi NW 9.2 mph - N/A   Mostly Cloudy
6:15 PM 55.4 °F - 24.8 °F 31% 30.09 in 10.0 mi NNW 5.8 mph - N/A   Scattered Clouds
6:35 PM 55.4 °F - 24.8 °F 31% 30.10 in 10.0 mi North 6.9 mph - N/A   Mostly Cloudy
6:55 PM 53.6 °F - 24.8 °F 33% 30.11 in 10.0 mi NNW 9.2 mph - N/A   Scattered Clouds
7:15 PM 50.0 °F - 24.8 °F 37% 30.11 in 10.0 mi NNW 6.9 mph - N/A   Partly Cloudy
7:35 PM 50.0 °F - 24.8 °F 37% 30.12 in 10.0 mi NNW 4.6 mph - N/A   Clear
7:55 PM 48.2 °F - 26.6 °F 43% 30.13 in 10.0 mi NNW 6.9 mph - N/A   Clear
8:15 PM 48.2 °F - 26.6 °F 43% 30.13 in 10.0 mi North 6.9 mph - N/A   Partly Cloudy
8:35 PM 46.4 °F 42.4 °F 26.6 °F 46% 30.14 in 10.0 mi North 8.1 mph - N/A   Mostly Cloudy
8:55 PM 46.4 °F 44.3 °F 24.8 °F 43% 30.14 in 10.0 mi North 4.6 mph - N/A   Mostly Cloudy
9:15 PM 44.6 °F - 24.8 °F 46% 30.14 in 10.0 mi Calm Calm - N/A   Partly Cloudy
9:35 PM 44.6 °F - 24.8 °F 46% 30.15 in 10.0 mi Calm Calm - N/A   Mostly Cloudy
10:15 PM 44.6 °F - 24.8 °F 46% 30.16 in 10.0 mi Calm Calm - N/A   Mostly Cloudy
10:35 PM 41.0 °F - 26.6 °F 57% 30.16 in 10.0 mi Calm Calm - N/A   Mostly Cloudy
10:55 PM 37.4 °F - 26.6 °F 65% 30.16 in 10.0 mi Calm Calm - N/A   Mostly Cloudy
11:15 PM 41.0 °F 38.0 °F 24.8 °F 53% 30.16 in 10.0 mi East 4.6 mph - N/A   Mostly Cloudy
11:35 PM 41.0 °F - 24.8 °F 53% 30.16 in 10.0 mi Calm Calm - N/A   Overcast
11:55 PM 39.2 °F - 28.4 °F 65% 30.17 in 10.0 mi Calm Calm - N/A   Overcast